DELTA 1 DEB

Satellite information

Favourite Embed

Satellite Type and Status

DEBRISIN ORBIT

Key statistics

Satellite DELTA 1 DEB at a glance.

Uptime

17346

Days in orbit

Revolutions

≈ 14.2

Per day

Orbit

SSO

Sun Synchronous Orbit

Inclination

98.8

Latest

Satellite identification and parameters

Extended collection of information and parameters for DELTA 1 DEB.

Object identification

Identified? True

Debris? True

Object name: DELTA 1 DEB

International designator: 1978-026JP

Object number (NORAD): 37652

Object ID (CCSDS): 37652

Country: UNITED STATES OF AMERICA (US)

Current information (Y/N): Y

RCS size: SMALL

Orbital parameters

Period: 101.361 minutes

Inclination: 98.7923 deg

SMA: 7201.227 km

Apoapsis: 841.221 km

Periapsis: 804.963 km

RAAN: 189.4449 deg

Eccentricy: 0.00251747

Argument of periapsis: 207.2125 deg

Mean anomaly: 152.7733 deg

Mean motion: 14.20669434 rev/day

Mean motion (dot): 0.0000066 rev/day2

B* drag term: 0.00032614352 1/REarth

Two-line elements (TLE)

Creation date: Aug. 23, 2025, 5:13 p.m.

Reference frame: TEME

Reference center: EARTH

Epoch: Aug. 22, 2025, 2:24 p.m. UTC

TLE line 0: 0 DELTA 1 DEB

TLE line 1: 1 37652U 78026JP 25234.60037359 .00000660 00000-0 32614-3 0 9996

TLE line 2: 2 37652 98.7923 189.4449 0025175 207.2125 152.7733 14.20669434 99657

Live tracking on map

Real-time ground track for satellite DELTA 1 DEB.

In-orbit conjunctions

A list of the most updated potential collisions computed for object DELTA 1 DEB.

Target Orbit TCA Probability of collision Miss distance Type
FENGYUN 1C DEB SSO 2024-09-02 12:40:14 0.0005580825 57.0 (m) DEBRIS

Associated space launch

Earth observation satellite

DELTA 1 DEB was lifted into orbit during the mission ‘Delta 2910 | Landsat 3’, on board a Delta 2910 space rocket.

The launch took place on March 5, 1978, 5:54 p.m. from Space Launch Complex 2W.

For more information about the launch, click the button.

Launch to space Delta 2910 | Landsat 3
Delta 2910 | Landsat 3

Agency: N/A

Status: Launch Successful

Launch date: March 5, 1978, 5:54 p.m. UTC

Rocket: Delta 2910

Launch pad: Space Launch Complex 2W

Location: Vandenberg SFB, CA, USA

...

Latest news about this satellite

There are no fresh news available about this satellite. Check back as we update our databases every day.


Newsletter sign-up

Weekly statistics, charts and insights to help you stay on top of the space industry.